Regional Weather Roundup
Issued by NWS

Home | Current Version | Previous Version | Graphics & Text | Print | Product List | Glossary On
Versions: 1 2 3 4 5 6 7 8 9 10 11 12 13 14 15 16 17 18 19 20 21 22 23 24 25 26 27 28 29 30 31 32 33 34 35 36 37 38 39 40 41 42 43 44 45 46 47 48 49 50
000
ASUS45 KBOU 241307
RWRCO

WEATHER ROUNDUP FOR COLORADO
NATIONAL WEATHER SERVICE DENVER/BOULDER CO
600 AM MST MON NOV 24 2014

NOTE: "FAIR" INDICATES FEW OR NO CLOUDS BELOW 12000 FEET WITH NO
SIGNIFICANT WEATHER AND/OR OBSTRUCTIONS TO VISIBILITY.

COZ001>005-013-030-031-241400-
...NORTHWEST COLORADO...

CITY           SKY/WX    TMP DP  RH WIND       PRES   REMARKS
CRAIG          SNOW      24  19  81 SW15      30.03R VSB 1/2 WCI  11
HAYDEN         CLOUDY    19  16  86 NE6       30.00S VSB 3/4 WCI  11
MEEKER         LGT SNOW  21  17  84 CALM      30.05S VSB 3/4
MOUNT WERNER   NOT AVBL
STEAMBOAT SPGS CLOUDY    19  17  90 CALM      29.99S VSB 1
WALDEN         CLOUDY    18   9  68 SW13      29.90S WCI   4
$$

COZ006>008-011-241400-
...WEST CENTRAL VALLEYS...

CITY           SKY/WX    TMP DP  RH WIND       PRES   REMARKS
GRAND JUNCTION MOCLDY    24  14  65 SE6       30.13S WCI  17
MONTROSE       CLOUDY    24  13  62 SE9       30.14S WCI  14
EAGLE          CLOUDY    21  18  86 W9        30.06F WCI  11
RIFLE          LGT SNOW  22  19  89 CALM      30.12R FOG
DELTA          CLOUDY    26  18  71 CALM      30.16R
NUCLA          NOT AVBL
$$

COZ017>023-064>068-241400-
...SOUTHWEST COLORADO...

CITY           SKY/WX    TMP DP  RH WIND       PRES   REMARKS
DURANGO        PTCLDY    19   7  59 W7        30.07R WCI  10
CORTEZ         CLEAR     13  10  88 NE6       30.17R WCI   4
PAGOSA SPRINGS PTCLDY    13   4  68 CALM      30.04F
TELLURIDE      NOT AVBL
WOLF CREEK PAS MOCLDY     1  -8  66 MISG      29.93S
$$

COZ009-010-012-014-032>034-037-058>063-241400-
...CENTRAL COLORADO...

CITY           SKY/WX    TMP DP  RH WIND       PRES   REMARKS
ASPEN          LGT SNOW  17  13  84 CALM      30.02R FOG
BUENA VISTA    CLOUDY    21   2  45 NW13      29.97R WCI   8
COPPER MTN     CLOUDY     5   0  78 MISG      29.86R
BERTHOUD PASS  SNOW       0  -4  85 NW37G51   29.75R VSB 1/2 WCI -28
COTTONWOOD PAS LGT SNOW  18   3  53 NW23G41   29.89R WCI   0
GUNNISON       CLOUDY    10   3  72 N3        30.08S
KREMMLING      LGT SNOW  19  14  79 CALM      29.98S
LEADVILLE      LGT SNOW   8   4  83 N3        29.92S FOG
MONARCH PASS   CLOUDY     1  -2  85 MISG      29.98R
SALIDA         CLOUDY    24   2  38 W22G35    30.04F WCI   9
SUNLIGHT       CLOUDY   N/A N/A N/A S3        29.94F
WILKERSON PASS MOCLDY     5  -4  66 W15G25    29.84R WCI -13
$$

COZ069>075-241400-
...SAN LUIS VALLEY/SANGRE DE CRISTO MOUNTAINS...

CITY           SKY/WX    TMP DP  RH WIND       PRES   REMARKS
ALAMOSA        MOCLDY     6  -1  73 W6        30.03R WCI  -4
LA VETA PASS   MOCLDY    10   1  67 MISG      29.86R
SAGUACHE       NOT AVBL
$$

COZ035-036-038>040-241400-
...NORTHERN COLORADO FRONT RANGE...

CITY           SKY/WX    TMP DP  RH WIND       PRES   REMARKS
DENVER INTL AP MOCLDY    29   9  43 W7        29.86R WCI  22
DMNS CITY PARK   N/A     31   6  34 NE1       29.89R
AURORA         PTCLDY    29   7  38 W8        29.89R WCI  22
FRONT RANGE AP MOCLDY    30  14  51 W10       29.87R WCI  21
ERIE MUNI ARPT MOCLDY    27   8  44 SE5       29.87R WCI  22
BOULDER MUN AP MOCLDY    34   9  35 SE3       29.85R
CENTENNIAL     CLOUDY    26   5  40 SW6       29.87S WCI  19
BROOMFIELD     MOCLDY    32   7  34 W25G38    29.85F WCI  19
FORT COLLINS   MOCLDY    37   9  30 NW20G26   29.86R
LONGMONT       MOCLDY    36   8  31 NW9       29.87R
$$

COZ041-046-047-076>085-087-088-241400-
...PIKES PEAK/PALMER DIVIDE AND SOUTHERN FOOTHILLS...

CITY           SKY/WX    TMP DP  RH WIND       PRES   REMARKS
COLO. SPRINGS  MOCLDY    30   3  31 NW18G26   29.87R WCI  18
A. F. ACADEMY  CLOUDY    28   0  29 N8        29.87R WCI  20
ELLICOTT       NOT AVBL
FALCON         NOT AVBL
FORT CARSON    MOCLDY    21   6  53 CALM      29.87R
LIMON          PTCLDY    17   6  62 W16       29.86R WCI   2
MONUMENT HILL  CLOUDY    19   7  58 W9        29.86R WCI   9
TRINIDAD       PTCLDY    16   8  71 W13       29.94S WCI   2
$$

COZ042>045-048>051-090-091-241400-
...NORTHEAST COLORADO...

CITY           SKY/WX    TMP DP  RH WIND       PRES   REMARKS
GREELEY ARPT   MOCLDY    28  12  50 W7        29.87R WCI  21
AKRON          PTCLDY    26  12  55 W21       29.82R WCI  12
BURLINGTON     CLEAR     18   7  62 SW10      29.85S WCI   6
WRAY           CLEAR     28  13  53 W12       29.83R WCI  17
STERLING       PTCLDY    32  18  55 W6        29.84R WCI  26
HOLYOKE        CLEAR     34  19  55 W14G20    29.81R WCI  24
FORT MORGAN    PTCLDY    26  11  53 SW8       29.86S WCI  17
$$

COZ086-089-092>099-241400-
...SOUTHEAST COLORADO...

CITY           SKY/WX    TMP DP  RH WIND       PRES   REMARKS
PUEBLO         MOCLDY    31  10  41 W21       29.91R WCI  18
LA JUNTA       CLEAR     24  15  68 SW15      29.92R WCI  11
LAMAR          CLEAR     24  19  81 W13       29.90S WCI  12
SPRINGFIELD      N/A     24  14  65 W13       29.92S WCI  12
$$


USA.gov is the U.S. government's official web portal to all federal, state and local government web resources and services.